This is the latest recevied weather packets stored in our database for station/object K3PPP. If no packets are shown the sender has not sent any weather packets the latest 10 day(s).
| Time | Temp. | Humidity | Pressure | Rain* | Wind** | Luminosity | Snow |
|---|---|---|---|---|---|---|---|
| 1778195293 | 11.11° C | 47% | 1010.6 hPa | 0 mm | - | 53 W/m² | - |
| 1778194990 | 11.11° C | 47% | 1010.8 hPa | 0 mm | - | 43 W/m² | - |
| 1778194690 | 11.11° C | 47% | 1010.7 hPa | 0 mm | - | 57 W/m² | - |
| 1778194386 | 11.11° C | 47% | 1010.8 hPa | 0 mm | - | 66 W/m² | - |
| 1778194082 | 11.11° C | 48% | 1010.4 hPa | 0 mm | - | 69 W/m² | - |
| 1778193779 | 11.11° C | 48% | 1010.7 hPa | 0 mm | - | 59 W/m² | - |
| 1778193475 | 11.11° C | 48% | 1010.6 hPa | 0 mm | - | 68 W/m² | - |
| 1778193172 | 11.67° C | 47% | 1010.7 hPa | 0 mm | - | 60 W/m² | - |
| 1778192869 | 11.67° C | 48% | 1010.3 hPa | 0 mm | - | 77 W/m² | - |
| 1778192565 | 11.67° C | 47% | 1010.3 hPa | 0 mm | - | 85 W/m² | - |
| 1778192262 | 11.67° C | 47% | 1010.3 hPa | 0 mm | - | 115 W/m² | - |
| 1778191958 | 11.67° C | 48% | 1010.6 hPa | 0 mm | - | 142 W/m² | - |
| 1778191655 | 11.67° C | 49% | 1010.3 hPa | 0 mm | - | 98 W/m² | - |
| 1778191354 | 11.67° C | 48% | 1010.2 hPa | 0 mm | - | 89 W/m² | - |
| 1778191049 | 11.67° C | 48% | 1010.2 hPa | 0 mm | - | 97 W/m² | - |
| 1778190747 | 11.67° C | 47% | 1010 hPa | 0 mm | - | 117 W/m² | - |
| 1778190444 | 12.22° C | 46% | 1010.1 hPa | 0 mm | - | 116 W/m² | - |
| 1778190141 | 11.67° C | 46% | 1010.1 hPa | 0 mm | - | 167 W/m² | - |
| 1778189836 | 12.22° C | 46% | 1010.1 hPa | 0 mm | - | 134 W/m² | - |
| 1778189534 | 12.78° C | 47% | 1010.1 hPa | 0 mm | - | 158 W/m² | - |
| 1778189230 | 12.78° C | 48% | 1009.9 hPa | 0 mm | - | 162 W/m² | - |
| 1778188927 | 12.78° C | 47% | 1010.1 hPa | 0 mm | - | 192 W/m² | - |
| 1778188623 | 12.78° C | 48% | 1010.1 hPa | 0 mm | - | 457 W/m² | - |
| 1778188319 | 12.22° C | 49% | 1010.1 hPa | 0 mm | - | 538 W/m² | - |
| 1778188016 | 12.22° C | 49% | 1010 hPa | 0 mm | - | 139 W/m² | - |
* Rain latest hour (hover to see other rain measurements)
** Current wind speed in m/s (hover to see current wind gust speed)